[[{"header":{"parameterUnit":"m.s-1","parameterCategory":1,"la1":30.2991,"la2":30.254,"lo1":-89.0895,"lo2":-89.0444,"dy":0.0017,"dx":0.0017,"nx":28,"ny":28,"refTime":"2025-01-28T09:00:00:Z","depth":0,"parameterNumber":2,"parameterNumberName":"U-component_of_WINDS"},"data":[0,0,0,0,0,0,0,0,0,0,0,0,0,0,0,0,0,0,0,0,0,0,0,0,0,0,0,0,0,0,0,0,0,0,0,0,0,0,0,0,0,0,0,0,0,0,0,0,0,0,0,0,0,0,0,0,0,0,-0.8144,-0.8144,0,-0.8146,-0.8146,-0.8146,-0.8107,-0.8106,-0.8105,-0.8104,-0.8105,-0.8106,-0.8107,0,0,0,0,0,0,0,0,0,0,0,0,0,-0.8107,-0.8108,-0.8144,-0.8144,-0.8144,-0.8146,-0.8146,-0.8146,-0.8107,-0.8106,-0.8105,-0.8104,-0.8104,-0.8106,-0.8107,0,0,0,0,0,0,0,0,0,0,0,0,0,-0.8117,-0.8108,-0.8144,-0.8125,-0.8124,-0.8146,-0.8146,-0.8146,-0.8108,-0.8106,-0.8105,-0.8103,-0.8104,-0.8105,-0.8107,-0.8147,0,0,-0.8111,-0.8112,0,0,0,0,0,0,0,0,-0.8117,-0.8119,-0.8128,-0.8127,-0.8125,-0.8125,-0.8133,-0.8146,-0.8108,-0.8114,-0.8104,-0.8102,-0.8113,-0.8113,-0.8117,-0.8147,-0.8147,-0.8112,-0.8112,-0.8113,-0.8113,0,0,0,0,0,0,0,-0.8116,-0.8118,-0.8145,-0.8128,-0.8126,-0.8116,-0.8116,-0.8135,-0.8122,-0.8113,-0.811,-0.8111,-0.8111,-0.8116,-0.8117,-0.8147,-0.8111,-0.8113,-0.8114,-0.8114,-0.8211,-0.8213,0,0,0,0,0,0,-0.8118,-0.8118,-0.8145,-0.8145,-0.8117,-0.8118,-0.8118,-0.8126,-0.8121,-0.8119,-0.8112,-0.8109,-0.8114,-0.8115,-0.8117,-0.8164,-0.8113,-0.8114,-0.8115,-0.8209,-0.8212,-0.8213,0,0,0,0,0,0,-0.8117,-0.8121,-0.8145,-0.8131,-0.8133,-0.8121,-0.813,-0.8127,-0.8131,-0.8121,-0.8118,-0.8119,-0.8113,-0.8114,-0.814,-0.8163,-0.8115,-0.8116,-0.8207,-0.821,-0.8212,-0.8258,0,0,0,0,0,0,-0.8116,-0.8121,-0.8136,-0.8131,-0.8134,-0.8169,-0.8132,-0.8128,-0.8134,-0.813,-0.8127,-0.8125,-0.8112,-0.8138,-0.8142,-0.8164,-0.8118,-0.8205,-0.8209,-0.8212,-0.8255,-0.8262,-0.8268,0,0,0,0,0,-0.8115,-0.8148,-0.8137,-0.814,-0.8153,-0.817,-0.8171,-0.8156,-0.8136,-0.8151,-0.8145,-0.8125,-0.816,-0.8141,-0.8145,-0.8168,-0.8204,-0.8208,-0.8211,-0.8252,-0.8261,-0.8268,0,0,0,0,0,0,-0.8155,-0.8147,-0.8135,-0.8167,-0.817,-0.8163,-0.8182,-0.8166,-0.8174,-0.8169,-0.815,-0.8149,-0.8178,-0.8176,-0.8154,-0.8207,-0.8178,-0.8183,-0.8208,-0.8216,-0.8223,-0.8223,-0.8119,0,0,0,0,0,-0.8168,-0.8183,-0.8175,-0.8205,-0.8207,-0.8195,-0.8201,-0.8189,-0.8191,-0.8191,-0.8187,-0.8189,-0.82,-0.8208,-0.8218,-0.8254,-0.8253,-0.8272,-0.8279,-0.8285,-0.8289,-0.8308,-0.8317,-0.8226,-0.8226,-0.8226,0,0,-0.8194,-0.8192,-0.8202,-0.8213,-0.8213,-0.8229,-0.8195,-0.8213,-0.8225,-0.8194,-0.8218,-0.8215,-0.8215,-0.8247,-0.826,-0.8246,-0.8314,-0.829,-0.8294,-0.8295,-0.8313,-0.8322,-0.833,-0.8228,-0.8228,-0.8228,0,0,-0.825,-0.825,-0.8275,-0.8277,-0.8278,-0.827,-0.8276,-0.8272,-0.8269,-0.8293,-0.827,-0.8284,-0.8304,-0.8305,-0.8309,-0.8367,-0.8349,-0.8371,-0.8407,-0.8426,-0.8433,-0.8439,-0.846,-0.8468,-0.8375,-0.8375,-0.8375,0,-0.8283,-0.8306,-0.829,-0.831,-0.8315,-0.8289,-0.8314,-0.8316,-0.832,-0.8324,-0.8308,-0.8333,-0.8332,-0.8364,-0.8378,-0.8381,-0.8388,-0.8371,-0.8433,-0.8439,-0.8445,-0.8465,-0.8472,-0.8378,-0.8377,-0.8377,-0.8377,0,-0.8346,-0.8362,-0.8382,-0.8388,-0.8396,-0.8418,-0.8405,-0.8415,-0.8403,-0.8396,-0.8421,-0.8419,-0.8428,-0.8435,-0.8422,-0.8465,-0.8456,-0.8437,-0.8407,-0.8457,-0.8475,-0.8482,-0.8382,-0.8381,-0.838,-0.8379,0,0,-0.8426,-0.8424,-0.8431,-0.8434,-0.8434,-0.8446,-0.8468,-0.8478,-0.8486,-0.849,-0.8508,-0.8526,-0.8509,-0.8513,-0.8501,-0.8518,-0.8564,-0.8496,-0.8496,-0.8509,-0.8611,-0.8625,-0.8634,-0.8552,-0.8554,-0.8555,-0.8611,0,-0.8481,-0.8518,-0.8504,-0.8542,-0.8557,-0.8533,-0.8551,-0.8553,-0.8548,-0.856,-0.8554,-0.8567,-0.8543,-0.8546,-0.8561,-0.8555,-0.8584,-0.8551,-0.8568,-0.8569,-0.8569,-0.8644,-0.8659,-0.8712,-0.8618,-0.8619,-0.862,0,-0.8549,-0.8557,-0.8596,-0.8595,-0.8601,-0.8618,-0.8626,-0.8638,-0.864,-0.8635,-0.864,-0.8624,-0.8645,-0.8616,-0.8645,-0.8622,-0.8629,-0.8627,-0.8628,-0.8629,-0.8597,-0.8646,-0.8728,-0.8736,-0.8631,-0.863,-0.8629,0,-0.8604,-0.8625,-0.8651,-0.8654,-0.8652,-0.8665,-0.8665,-0.8666,-0.8673,-0.868,-0.8684,-0.8694,-0.8699,-0.8706,-0.8694,-0.8674,-0.8724,-0.8694,-0.872,-0.8721,-0.8731,-0.8731,-0.8815,-0.8736,-0.8736,-0.8736,-0.8735,0,-0.8666,-0.8691,-0.8676,-0.8692,-0.8719,-0.8704,-0.8731,-0.8728,-0.8729,-0.8744,-0.8724,-0.8738,-0.8721,-0.8734,-0.8724,-0.8749,-0.8752,-0.8748,-0.8745,-0.875,-0.8751,-0.8754,-0.875,-0.8738,-0.8737,-0.8737,-0.8736,0,-0.8732,-0.8723,-0.875,-0.8747,-0.8747,-0.8767,-0.8764,-0.8779,-0.8773,-0.8792,-0.8796,-0.8786,-0.88,-0.8788,-0.8802,-0.8795,-0.8829,-0.8821,-0.8828,-0.8826,-0.8853,-0.8851,-0.8942,-0.8954,-0.8867,-0.8868,-0.8869,0,-0.8772,-0.8791,-0.879,-0.88,-0.8801,-0.8816,-0.8823,-0.8809,-0.8817,-0.8822,-0.8836,-0.8849,-0.8858,-0.8882,-0.8875,-0.8886,-0.8878,-0.8909,-0.8879,-0.8884,-0.8878,-0.8877,-0.8879,-0.8915,-0.8916,-0.8917,-0.8918,0,-0.8844,-0.8839,-0.8851,-0.8862,-0.8871,-0.8879,-0.8884,-0.8893,-0.8878,-0.8889,-0.8904,-0.8911,-0.8925,-0.8938,-0.8947,-0.8946,-0.893,-0.8927,-0.8934,-0.8939,-0.8943,-0.8941,-0.8845,-0.8925,-0.8924,-0.8924,-0.8923,-0.8923,-0.8898,-0.8914,-0.8917,-0.8931,-0.8934,-0.894,-0.8954,-0.895,-0.8962,-0.8973,-0.8964,-0.8982,-0.8984,-0.8994,-0.8996,-0.9009,-0.8996,-0.9006,-0.9008,-0.9011,-0.9015,-0.8941,-0.9011,-0.901,-0.901,-0.901,-0.901,0,-0.897,-0.897,-0.8984,-0.8993,-0.9004,-0.8988,-0.8994,-0.9004,-0.9021,-0.9024,-0.9034,-0.9051,-0.9064,-0.9059,-0.907,-0.9082,-0.9075,-0.9086,-0.9084,-0.9085,-0.9026,-0.9019,-0.9092,-0.9091,-0.9091,-0.9091,-0.9091,-0.9091,-0.9008,-0.9034,-0.903,-0.9057,-0.9058,-0.9076,-0.908,-0.9086,-0.9089,-0.9109,-0.912,-0.9117,-0.9118,-0.9129,-0.914,-0.9138,-0.9143,-0.9157,-0.9152,-0.9097,-0.9089,-0.9081,-0.9075,-0.9158,-0.9158,-0.921,-0.921,-0.9211]},{"header":{"parameterUnit":"m.s-1","parameterCategory":1,"la1":30.2991,"la2":30.254,"lo1":-89.0895,"lo2":-89.0444,"dy":0.0017,"dx":0.0017,"nx":28,"ny":28,"refTime":"2025-01-28T09:00:00:Z","depth":0,"parameterNumber":3,"parameterNumberName":"V-component_of_WINDS"},"data":[0,0,0,0,0,0,0,0,0,0,0,0,0,0,0,0,0,0,0,0,0,0,0,0,0,0,0,0,0,0,0,0,0,0,0,0,0,0,0,0,0,0,0,0,0,0,0,0,0,0,0,0,0,0,0,0,0,0,0.3215,0.3215,0,0.3175,0.3174,0.3174,0.319,0.3191,0.3191,0.3192,0.315,0.3148,0.3146,0,0,0,0,0,0,0,0,0,0,0,0,0,0.3306,0.3304,0.3215,0.3215,0.3214,0.3175,0.3174,0.3174,0.3189,0.3191,0.3192,0.3193,0.3151,0.3149,0.3146,0,0,0,0,0,0,0,0,0,0,0,0,0,0.3266,0.3304,0.3215,0.3217,0.3217,0.3175,0.3174,0.3174,0.3189,0.3191,0.3192,0.3193,0.3152,0.3149,0.3146,0.3099,0,0,0.3137,0.3135,0,0,0,0,0,0,0,0,0.3268,0.3263,0.3217,0.3217,0.3217,0.3189,0.3191,0.3149,0.3189,0.32,0.3192,0.3194,0.3162,0.3158,0.3147,0.3097,0.3096,0.3137,0.3135,0.3133,0.3133,0,0,0,0,0,0,0,0.3271,0.3265,0.3199,0.3217,0.3216,0.322,0.3216,0.3183,0.3173,0.3199,0.32,0.3195,0.3162,0.315,0.3147,0.3095,0.3137,0.3134,0.3132,0.3131,0.3004,0.3003,0,0,0,0,0,0,0.3274,0.3267,0.32,0.3198,0.3247,0.3217,0.3213,0.3196,0.3174,0.3172,0.3194,0.3196,0.3155,0.315,0.3145,0.3088,0.3133,0.3131,0.3129,0.3006,0.3004,0.3002,0,0,0,0,0,0,0.3276,0.3268,0.3202,0.3233,0.3225,0.3214,0.3196,0.3195,0.3183,0.317,0.3168,0.3184,0.3156,0.3149,0.3111,0.3087,0.3129,0.3127,0.3008,0.3005,0.3003,0.2974,0,0,0,0,0,0,0.3278,0.3268,0.325,0.3232,0.3223,0.3168,0.3194,0.3193,0.3178,0.318,0.316,0.3158,0.3156,0.3115,0.3108,0.3084,0.3124,0.301,0.3006,0.3004,0.2977,0.2971,0.2966,0,0,0,0,0,0.3282,0.3244,0.3249,0.3241,0.32,0.3167,0.3161,0.316,0.3176,0.3158,0.315,0.3159,0.3091,0.3111,0.3103,0.3077,0.3011,0.3007,0.3004,0.298,0.2972,0.2966,0,0,0,0,0,0,0.3259,0.3242,0.3247,0.3203,0.3186,0.3169,0.3146,0.3153,0.3131,0.3134,0.3134,0.3129,0.3088,0.308,0.3102,0.3031,0.3053,0.3048,0.3038,0.3031,0.3025,0.3027,0.3122,0,0,0,0,0,0.325,0.3224,0.321,0.3172,0.3163,0.3156,0.3141,0.3142,0.3125,0.3118,0.3107,0.3089,0.3064,0.3047,0.3024,0.2977,0.2972,0.2956,0.295,0.2946,0.294,0.2914,0.2906,0.299,0.299,0.2991,0,0,0.3228,0.3216,0.3199,0.3167,0.3154,0.3127,0.315,0.312,0.31,0.3113,0.3075,0.3067,0.3047,0.3004,0.2985,0.2995,0.2917,0.2941,0.2938,0.2935,0.291,0.2902,0.2895,0.2988,0.2988,0.2989,0,0,0.3176,0.3164,0.313,0.3117,0.3098,0.3093,0.3086,0.3068,0.3063,0.3025,0.3034,0.301,0.2967,0.2953,0.294,0.2883,0.289,0.2876,0.2845,0.282,0.2813,0.2808,0.2786,0.2778,0.2871,0.2871,0.2871,0,0.3151,0.3111,0.3112,0.3082,0.3067,0.3079,0.3045,0.3032,0.3005,0.2995,0.3008,0.2954,0.2942,0.2895,0.2881,0.2871,0.2861,0.2877,0.2814,0.2808,0.2803,0.2782,0.2774,0.2869,0.2869,0.2869,0.287,0,0.3082,0.3054,0.3029,0.3003,0.2987,0.2955,0.2951,0.2934,0.2937,0.2931,0.2892,0.2879,0.2852,0.2842,0.2844,0.2795,0.2802,0.2815,0.2837,0.2793,0.2773,0.2766,0.2866,0.2867,0.2868,0.2868,0,0,0.3012,0.2988,0.2979,0.2967,0.2947,0.2925,0.2894,0.2868,0.2853,0.2835,0.2808,0.2772,0.2784,0.2769,0.2771,0.2749,0.2703,0.2764,0.2763,0.2751,0.2647,0.2636,0.2626,0.2709,0.2707,0.2706,0.2648,0,0.2956,0.2901,0.2901,0.285,0.2824,0.2835,0.2808,0.2793,0.2787,0.2764,0.2759,0.2732,0.2751,0.2742,0.2721,0.2713,0.2681,0.2717,0.2683,0.2681,0.2685,0.2616,0.2605,0.255,0.264,0.2639,0.2638,0,0.2883,0.2862,0.2808,0.2792,0.2781,0.2757,0.2733,0.2711,0.2694,0.2692,0.2676,0.2681,0.2649,0.2675,0.263,0.2655,0.2641,0.2635,0.2633,0.2628,0.2655,0.2608,0.2533,0.2524,0.2626,0.2627,0.2628,0,0.2835,0.2794,0.2756,0.2746,0.2727,0.2709,0.27,0.2685,0.2669,0.2649,0.2639,0.2616,0.2602,0.2584,0.2582,0.2601,0.2538,0.2563,0.2534,0.2534,0.2518,0.2518,0.2438,0.2513,0.2513,0.2513,0.2513,0,0.2771,0.2737,0.2734,0.2711,0.2673,0.2675,0.2638,0.2631,0.2617,0.2593,0.2602,0.2579,0.2579,0.2555,0.2554,0.2517,0.2512,0.2508,0.2508,0.2506,0.2506,0.2495,0.2498,0.2511,0.2511,0.2512,0.2512,0,0.271,0.2707,0.2666,0.2651,0.2647,0.262,0.2607,0.2585,0.2581,0.255,0.2543,0.2536,0.2509,0.2506,0.2475,0.2474,0.2429,0.2434,0.2434,0.2434,0.2404,0.2407,0.2312,0.2299,0.2385,0.2384,0.2383,0,0.2668,0.2642,0.2625,0.2609,0.2599,0.2574,0.2558,0.256,0.2543,0.2522,0.2502,0.2476,0.2455,0.241,0.2403,0.2379,0.2382,0.2351,0.2378,0.2377,0.2379,0.238,0.2377,0.2344,0.2343,0.2343,0.2342,0,0.2593,0.2594,0.2571,0.2547,0.2528,0.251,0.2493,0.248,0.2479,0.246,0.2432,0.2416,0.2384,0.2357,0.2334,0.2325,0.2332,0.2334,0.2325,0.2322,0.2323,0.232,0.2417,0.2335,0.2336,0.2336,0.2337,0.2337,0.2539,0.2517,0.2501,0.2475,0.2463,0.2447,0.2425,0.2419,0.2396,0.2369,0.2372,0.2341,0.2326,0.2295,0.2284,0.226,0.227,0.2259,0.2255,0.2252,0.2248,0.2329,0.2256,0.2256,0.2256,0.2256,0.2257,0,0.2464,0.2455,0.2431,0.2407,0.2387,0.2398,0.2379,0.2362,0.2334,0.2319,0.2298,0.2266,0.2241,0.2232,0.2207,0.2189,0.2192,0.2183,0.2183,0.218,0.2241,0.225,0.2181,0.2181,0.2181,0.2181,0.2181,0.2181,0.2422,0.2384,0.2382,0.2338,0.233,0.2299,0.2288,0.2273,0.2261,0.2225,0.2204,0.2198,0.2186,0.216,0.2137,0.2136,0.2125,0.2113,0.2113,0.2169,0.2176,0.2183,0.2192,0.2111,0.2111,0.2054,0.2053,0.2053]}]]